Time,TemperatureF,DewpointF,PressureIn,WindDirection,WindDirectionDegrees,WindSpeedMPH,WindSpeedGustMPH,Humidity,HourlyPrecipIn,Conditions,Clouds,dailyrainin,SolarRadiationWatts/m^2,SoftwareType,DateUTC
2013-03-01 00:02:00,51.8,42.7,30.41,NW,307,0.0,2.0,71,0.00,,,0.00,0,WeatherTracker,2013-03-01 08:02:00,
2013-03-01 00:07:00,51.9,42.4,30.41,NW,307,0.0,2.0,70,0.00,,,0.00,0,WeatherTracker,2013-03-01 08:07:00,
2013-03-01 00:12:00,51.9,42.8,30.41,NW,307,0.0,0.0,71,0.00,,,0.00,0,WeatherTracker,2013-03-01 08:12:00,
2013-03-01 00:17:00,52.0,42.9,30.41,NW,306,2.0,0.0,71,0.00,,,0.00,0,WeatherTracker,2013-03-01 08:17:00,
2013-03-01 00:23:00,52.1,42.6,30.41,NW,306,0.0,4.0,70,0.00,,,0.00,0,WeatherTracker,2013-03-01 08:23:00,
2013-03-01 00:28:00,52.2,42.7,30.41,NW,306,0.0,4.0,70,0.00,,,0.00,0,WeatherTracker,2013-03-01 08:28:00,
2013-03-01 00:33:00,52.2,42.7,30.41,NW,306,0.0,0.0,70,0.00,,,0.00,0,WeatherTracker,2013-03-01 08:33:00,
2013-03-01 00:38:00,52.2,42.7,30.41,NW,306,0.0,4.0,70,0.00,,,0.00,0,WeatherTracker,2013-03-01 08:38:00,
2013-03-01 00:43:00,52.2,42.7,30.41,NW,306,0.0,4.0,70,0.00,,,0.00,0,WeatherTracker,2013-03-01 08:43:00,
2013-03-01 00:48:00,52.2,42.7,30.41,NW,306,0.0,3.0,70,0.00,,,0.00,0,WeatherTracker,2013-03-01 08:48:00,
2013-03-01 00:53:00,52.0,42.5,30.41,NW,306,0.0,0.0,70,0.00,,,0.00,0,WeatherTracker,2013-03-01 08:53:00,
2013-03-01 00:58:00,52.0,42.5,30.41,NW,306,0.0,0.0,70,0.00,,,0.00,0,WeatherTracker,2013-03-01 08:58:00,
2013-03-01 01:03:00,51.9,42.4,30.41,NW,306,0.0,0.0,70,0.00,,,0.00,0,WeatherTracker,2013-03-01 09:03:00,
2013-03-01 01:08:00,51.7,42.6,30.41,NW,306,0.0,0.0,71,0.00,,,0.00,0,WeatherTracker,2013-03-01 09:08:00,
2013-03-01 01:13:00,51.5,42.4,30.41,NW,306,0.0,0.0,71,0.00,,,0.00,0,WeatherTracker,2013-03-01 09:13:00,
2013-03-01 01:18:00,51.2,42.5,30.41,NW,306,0.0,0.0,72,0.00,,,0.00,0,WeatherTracker,2013-03-01 09:18:00,
2013-03-01 01:23:00,51.0,42.3,30.41,NW,306,0.0,0.0,72,0.00,,,0.00,0,WeatherTracker,2013-03-01 09:23:00,
2013-03-01 01:28:00,50.8,42.5,30.41,NW,306,0.0,0.0,73,0.00,,,0.00,0,WeatherTracker,2013-03-01 09:28:00,
2013-03-01 01:33:00,50.5,42.5,30.41,NW,306,0.0,0.0,74,0.00,,,0.00,0,WeatherTracker,2013-03-01 09:33:00,
2013-03-01 01:38:00,50.1,42.1,30.41,NW,306,0.0,0.0,74,0.00,,,0.00,0,WeatherTracker,2013-03-01 09:38:00,
2013-03-01 01:44:00,49.8,41.9,30.41,NW,306,0.0,0.0,74,0.00,,,0.00,0,WeatherTracker,2013-03-01 09:44:00,
2013-03-01 01:49:00,49.6,42.0,30.41,NW,306,0.0,0.0,75,0.00,,,0.00,0,WeatherTracker,2013-03-01 09:49:00,
2013-03-01 01:54:00,49.3,41.7,30.41,NW,306,0.0,0.0,75,0.00,,,0.00,0,WeatherTracker,2013-03-01 09:54:00,
2013-03-01 01:59:00,49.1,41.5,30.41,NW,306,0.0,0.0,75,0.00,,,0.00,0,WeatherTracker,2013-03-01 09:59:00,
2013-03-01 02:04:00,49.0,41.4,30.41,NW,306,0.0,0.0,75,0.00,,,0.00,0,WeatherTracker,2013-03-01 10:04:00,
2013-03-01 02:09:00,48.8,41.2,30.41,NW,306,0.0,0.0,75,0.00,,,0.00,0,WeatherTracker,2013-03-01 10:09:00,
2013-03-01 02:14:00,48.6,41.4,30.41,NW,306,0.0,0.0,76,0.00,,,0.00,0,WeatherTracker,2013-03-01 10:14:00,
2013-03-01 02:19:00,48.4,41.2,30.41,NW,306,0.0,0.0,76,0.00,,,0.00,0,WeatherTracker,2013-03-01 10:19:00,
2013-03-01 02:24:00,48.4,41.2,30.41,NW,306,0.0,0.0,76,0.00,,,0.00,0,WeatherTracker,2013-03-01 10:24:00,
2013-03-01 02:29:00,48.3,41.1,30.41,NW,306,0.0,0.0,76,0.00,,,0.00,0,WeatherTracker,2013-03-01 10:29:00,
2013-03-01 02:34:00,48.2,41.3,30.41,NW,306,0.0,0.0,77,0.00,,,0.00,0,WeatherTracker,2013-03-01 10:34:00,
2013-03-01 02:39:00,48.2,41.3,30.41,NW,306,0.0,0.0,77,0.00,,,0.00,0,WeatherTracker,2013-03-01 10:39:00,
2013-03-01 02:44:00,48.2,41.3,30.41,NW,306,0.0,0.0,77,0.00,,,0.00,0,WeatherTracker,2013-03-01 10:44:00,
2013-03-01 02:49:00,48.2,41.3,30.41,NW,306,0.0,0.0,77,0.00,,,0.00,0,WeatherTracker,2013-03-01 10:49:00,
2013-03-01 02:54:00,48.1,41.2,30.41,NW,306,0.0,0.0,77,0.00,,,0.00,0,WeatherTracker,2013-03-01 10:54:00,
2013-03-01 02:59:00,48.0,41.1,30.41,NW,306,0.0,0.0,77,0.00,,,0.00,0,WeatherTracker,2013-03-01 10:59:00,
2013-03-01 03:04:00,47.9,41.0,30.41,NW,306,0.0,0.0,77,0.00,,,0.00,0,WeatherTracker,2013-03-01 11:04:00,
2013-03-01 03:09:00,47.8,40.9,30.40,NW,306,0.0,0.0,77,0.00,,,0.00,0,WeatherTracker,2013-03-01 11:09:00,
2013-03-01 03:14:00,47.7,41.2,30.40,NW,306,0.0,0.0,78,0.00,,,0.00,0,WeatherTracker,2013-03-01 11:14:00,
2013-03-01 03:19:00,47.8,41.3,30.40,NW,306,0.0,0.0,78,0.00,,,0.00,0,WeatherTracker,2013-03-01 11:19:00,
2013-03-01 03:24:00,47.7,41.2,30.40,NW,306,0.0,0.0,78,0.00,,,0.00,0,WeatherTracker,2013-03-01 11:24:00,
2013-03-01 03:29:00,47.6,41.1,30.40,NW,306,0.0,0.0,78,0.00,,,0.00,0,WeatherTracker,2013-03-01 11:29:00,
2013-03-01 03:35:00,47.4,40.6,30.40,NW,306,0.0,0.0,77,0.00,,,0.00,0,WeatherTracker,2013-03-01 11:35:00,
2013-03-01 03:40:00,47.2,40.7,30.40,NW,306,0.0,0.0,78,0.00,,,0.00,0,WeatherTracker,2013-03-01 11:40:00,
2013-03-01 03:45:00,47.1,40.6,30.40,NW,306,0.0,0.0,78,0.00,,,0.00,0,WeatherTracker,2013-03-01 11:45:00,
2013-03-01 03:50:00,47.0,40.5,30.40,NW,306,0.0,0.0,78,0.00,,,0.00,0,WeatherTracker,2013-03-01 11:50:00,
2013-03-01 03:55:00,46.9,40.7,30.41,NW,306,0.0,0.0,79,0.00,,,0.00,0,WeatherTracker,2013-03-01 11:55:00,
2013-03-01 04:00:00,46.8,40.6,30.41,NW,306,0.0,0.0,79,0.00,,,0.00,0,WeatherTracker,2013-03-01 12:00:00,
2013-03-01 04:05:00,46.6,40.4,30.40,NW,306,0.0,0.0,79,0.00,,,0.00,0,WeatherTracker,2013-03-01 12:05:00,
2013-03-01 04:10:00,46.4,40.6,30.40,NW,306,0.0,0.0,80,0.00,,,0.00,0,WeatherTracker,2013-03-01 12:10:00,
2013-03-01 04:15:00,46.3,40.5,30.41,NW,306,0.0,0.0,80,0.00,,,0.00,0,WeatherTracker,2013-03-01 12:15:00,
2013-03-01 04:20:00,46.2,40.4,30.41,NW,306,0.0,0.0,80,0.00,,,0.00,0,WeatherTracker,2013-03-01 12:20:00,
2013-03-01 04:25:00,46.2,40.7,30.41,NW,306,0.0,0.0,81,0.00,,,0.00,0,WeatherTracker,2013-03-01 12:25:00,
2013-03-01 04:30:00,46.2,40.7,30.41,NW,306,0.0,1.0,81,0.00,,,0.00,0,WeatherTracker,2013-03-01 12:30:00,
2013-03-01 04:35:00,46.3,41.1,30.41,NW,306,0.0,1.0,82,0.00,,,0.00,0,WeatherTracker,2013-03-01 12:35:00,
2013-03-01 04:40:00,46.5,41.3,30.41,NW,306,0.0,0.0,82,0.00,,,0.00,0,WeatherTracker,2013-03-01 12:40:00,
2013-03-01 04:45:00,46.7,41.5,30.40,NW,306,0.0,1.0,82,0.00,,,0.00,0,WeatherTracker,2013-03-01 12:45:00,
2013-03-01 04:50:00,46.9,41.7,30.40,NW,306,0.0,1.0,82,0.00,,,0.00,0,WeatherTracker,2013-03-01 12:50:00,
2013-03-01 04:55:00,47.2,42.0,30.41,NW,306,0.0,4.0,82,0.00,,,0.00,0,WeatherTracker,2013-03-01 12:55:00,
2013-03-01 05:00:00,47.5,42.3,30.40,NW,306,1.0,4.0,82,0.00,,,0.00,0,WeatherTracker,2013-03-01 13:00:00,
2013-03-01 05:05:00,47.7,42.2,30.40,NW,304,2.0,5.0,81,0.00,,,0.00,0,WeatherTracker,2013-03-01 13:05:00,
2013-03-01 05:10:00,47.9,42.4,30.40,WNW,302,0.0,7.0,81,0.00,,,0.00,0,WeatherTracker,2013-03-01 13:10:00,
2013-03-01 05:15:00,48.4,42.5,30.40,NW,306,6.0,7.0,80,0.00,,,0.00,0,WeatherTracker,2013-03-01 13:15:00,
2013-03-01 05:20:00,48.8,42.6,30.40,NW,317,3.0,6.0,79,0.00,,,0.00,0,WeatherTracker,2013-03-01 13:20:00,
2013-03-01 05:25:00,49.2,42.6,30.40,NW,315,0.0,7.0,78,0.00,,,0.00,0,WeatherTracker,2013-03-01 13:25:00,
2013-03-01 05:30:00,49.5,42.9,30.40,NW,315,4.0,7.0,78,0.00,,,0.00,0,WeatherTracker,2013-03-01 13:30:00,
2013-03-01 05:36:00,49.7,42.8,30.40,NW,321,5.0,7.0,77,0.00,,,0.00,0,WeatherTracker,2013-03-01 13:36:00,
2013-03-01 05:41:00,49.7,42.8,30.40,NW,321,3.0,7.0,77,0.00,,,0.00,0,WeatherTracker,2013-03-01 13:41:00,
2013-03-01 05:46:00,49.8,42.9,30.40,NW,321,1.0,6.0,77,0.00,,,0.00,0,WeatherTracker,2013-03-01 13:46:00,
2013-03-01 05:51:00,49.8,42.9,30.40,NW,318,0.0,5.0,77,0.00,,,0.00,0,WeatherTracker,2013-03-01 13:51:00,
2013-03-01 05:56:00,49.8,42.9,30.40,NW,318,0.0,5.0,77,0.00,,,0.00,0,WeatherTracker,2013-03-01 13:56:00,
2013-03-01 06:01:00,49.6,42.3,30.40,NW,318,0.0,4.0,76,0.00,,,0.00,0,WeatherTracker,2013-03-01 14:01:00,
2013-03-01 06:06:00,49.5,42.6,30.40,NW,318,0.0,0.0,77,0.00,,,0.00,0,WeatherTracker,2013-03-01 14:06:00,
2013-03-01 06:11:00,49.3,42.4,30.40,NW,318,0.0,0.0,77,0.00,,,0.00,0,WeatherTracker,2013-03-01 14:11:00,
2013-03-01 06:16:00,48.9,42.0,30.40,NW,318,0.0,0.0,77,0.00,,,0.00,0,WeatherTracker,2013-03-01 14:16:00,
2013-03-01 06:21:00,48.7,42.2,30.40,NW,318,0.0,0.0,78,0.00,,,0.00,0,WeatherTracker,2013-03-01 14:21:00,
2013-03-01 06:26:00,48.4,41.9,30.40,NW,318,0.0,0.0,78,0.00,,,0.00,0,WeatherTracker,2013-03-01 14:26:00,
2013-03-01 06:31:00,48.2,42.0,30.40,NW,318,0.0,0.0,79,0.00,,,0.00,0,WeatherTracker,2013-03-01 14:31:00,
2013-03-01 06:36:00,48.0,41.5,30.40,NW,318,0.0,0.0,78,0.00,,,0.00,5,WeatherTracker,2013-03-01 14:36:00,
2013-03-01 06:41:00,47.8,41.6,30.40,NW,318,0.0,0.0,79,0.00,,,0.00,7,WeatherTracker,2013-03-01 14:41:00,
2013-03-01 06:46:00,47.5,41.6,30.40,NW,318,0.0,0.0,80,0.00,,,0.00,11,WeatherTracker,2013-03-01 14:46:00,
2013-03-01 06:51:00,47.4,41.5,30.40,NW,318,0.0,0.0,80,0.00,,,0.00,12,WeatherTracker,2013-03-01 14:51:00,
2013-03-01 06:56:00,47.4,41.9,30.40,NW,318,0.0,0.0,81,0.00,,,0.00,14,WeatherTracker,2013-03-01 14:56:00,
2013-03-01 07:01:00,47.5,42.0,30.40,NW,318,0.0,0.0,81,0.00,,,0.00,18,WeatherTracker,2013-03-01 15:01:00,
2013-03-01 07:06:00,47.6,42.1,30.41,NW,318,0.0,0.0,81,0.00,,,0.00,21,WeatherTracker,2013-03-01 15:06:00,
2013-03-01 07:11:00,47.8,42.3,30.41,NW,318,0.0,0.0,81,0.00,,,0.00,37,WeatherTracker,2013-03-01 15:11:00,
2013-03-01 07:16:00,48.5,42.9,30.41,NW,318,0.0,0.0,81,0.00,,,0.00,46,WeatherTracker,2013-03-01 15:16:00,
2013-03-01 07:21:00,49.3,43.4,30.41,NW,318,0.0,0.0,80,0.00,,,0.00,56,WeatherTracker,2013-03-01 15:21:00,
2013-03-01 07:26:00,50.1,43.8,30.41,NW,318,0.0,0.0,79,0.00,,,0.00,70,WeatherTracker,2013-03-01 15:26:00,
2013-03-01 07:31:00,51.2,43.9,30.41,NW,318,0.0,0.0,76,0.00,,,0.00,88,WeatherTracker,2013-03-01 15:31:00,
2013-03-01 07:36:00,52.1,44.1,30.41,NW,318,0.0,0.0,74,0.00,,,0.00,104,WeatherTracker,2013-03-01 15:36:00,
2013-03-01 07:42:00,52.7,44.6,30.41,NW,318,0.0,0.0,74,0.00,,,0.00,123,WeatherTracker,2013-03-01 15:42:00,
2013-03-01 07:47:00,53.1,44.7,30.41,NW,318,0.0,0.0,73,0.00,,,0.00,144,WeatherTracker,2013-03-01 15:47:00,
2013-03-01 07:52:00,53.4,44.6,30.41,NW,318,0.0,4.0,72,0.00,,,0.00,163,WeatherTracker,2013-03-01 15:52:00,
2013-03-01 07:57:00,54.0,44.8,30.41,NW,319,0.0,4.0,71,0.00,,,0.00,181,WeatherTracker,2013-03-01 15:57:00,
2013-03-01 08:02:00,54.5,45.3,30.41,NW,319,0.0,4.0,71,0.00,,,0.00,200,WeatherTracker,2013-03-01 16:02:00,
2013-03-01 08:07:00,54.8,44.8,30.41,NW,319,0.0,2.0,69,0.00,,,0.00,220,WeatherTracker,2013-03-01 16:07:00,
2013-03-01 08:12:00,55.6,45.6,30.41,NW,319,0.0,1.0,69,0.00,,,0.00,236,WeatherTracker,2013-03-01 16:12:00,
2013-03-01 08:17:00,57.0,46.2,30.41,NW,319,0.0,0.0,67,0.00,,,0.00,253,WeatherTracker,2013-03-01 16:17:00,
2013-03-01 08:22:00,57.8,46.1,30.41,NW,319,0.0,0.0,65,0.00,,,0.00,269,WeatherTracker,2013-03-01 16:22:00,
2013-03-01 08:27:00,58.1,46.0,30.41,NW,319,0.0,0.0,64,0.00,,,0.00,285,WeatherTracker,2013-03-01 16:27:00,
2013-03-01 08:32:00,58.2,45.7,30.41,NW,319,0.0,0.0,63,0.00,,,0.00,302,WeatherTracker,2013-03-01 16:32:00,
2013-03-01 08:37:00,58.3,45.8,30.41,NW,319,0.0,0.0,63,0.00,,,0.00,318,WeatherTracker,2013-03-01 16:37:00,
2013-03-01 08:42:00,58.7,45.7,30.41,NW,319,0.0,0.0,62,0.00,,,0.00,334,WeatherTracker,2013-03-01 16:42:00,
2013-03-01 08:47:00,59.1,46.1,30.41,NW,319,0.0,0.0,62,0.00,,,0.00,348,WeatherTracker,2013-03-01 16:47:00,
2013-03-01 08:52:00,60.0,46.5,30.41,NW,319,0.0,0.0,61,0.00,,,0.00,364,WeatherTracker,2013-03-01 16:52:00,
2013-03-01 08:57:00,60.5,46.1,30.40,NW,318,0.0,0.0,59,0.00,,,0.00,380,WeatherTracker,2013-03-01 16:57:00,
2013-03-01 09:02:00,60.6,46.2,30.40,NW,319,0.0,1.0,59,0.00,,,0.00,396,WeatherTracker,2013-03-01 17:02:00,
2013-03-01 09:07:00,61.0,46.6,30.40,NW,319,0.0,1.0,59,0.00,,,0.00,413,WeatherTracker,2013-03-01 17:07:00,
2013-03-01 09:12:00,61.5,47.0,30.40,NW,322,0.0,0.0,59,0.00,,,0.00,427,WeatherTracker,2013-03-01 17:12:00,
2013-03-01 09:17:00,62.1,47.1,30.40,NW,323,0.0,4.0,58,0.00,,,0.00,441,WeatherTracker,2013-03-01 17:17:00,
2013-03-01 09:23:00,62.5,47.1,30.40,NW,324,0.0,4.0,57,0.00,,,0.00,457,WeatherTracker,2013-03-01 17:23:00,
2013-03-01 09:28:00,63.2,46.8,30.39,NNW,340,3.0,4.0,55,0.00,,,0.00,471,WeatherTracker,2013-03-01 17:28:00,
2013-03-01 09:33:00,63.8,47.8,30.39,NNW,342,0.0,5.0,56,0.00,,,0.00,485,WeatherTracker,2013-03-01 17:33:00,
2013-03-01 09:38:00,64.0,47.5,30.39,NW,323,0.0,5.0,55,0.00,,,0.00,496,WeatherTracker,2013-03-01 17:38:00,
2013-03-01 09:43:00,64.1,47.6,30.39,NW,315,4.0,6.0,55,0.00,,,0.00,512,WeatherTracker,2013-03-01 17:43:00,
2013-03-01 09:48:00,64.7,47.7,30.39,NW,308,7.0,7.0,54,0.00,,,0.00,524,WeatherTracker,2013-03-01 17:48:00,
2013-03-01 09:53:00,64.5,47.0,30.39,NNW,333,3.0,7.0,53,0.00,,,0.00,538,WeatherTracker,2013-03-01 17:53:00,
2013-03-01 09:58:00,64.5,47.5,30.39,NW,314,2.0,8.0,54,0.00,,,0.00,550,WeatherTracker,2013-03-01 17:58:00,
2013-03-01 10:03:00,65.1,48.0,30.39,NNW,348,5.0,8.0,54,0.00,,,0.00,563,WeatherTracker,2013-03-01 18:03:00,
2013-03-01 10:08:00,65.5,47.9,30.39,NW,315,0.0,8.0,53,0.00,,,0.00,573,WeatherTracker,2013-03-01 18:08:00,
2013-03-01 10:13:00,65.7,48.1,30.39,NW,304,1.0,8.0,53,0.00,,,0.00,585,WeatherTracker,2013-03-01 18:13:00,
2013-03-01 10:18:00,66.1,48.5,30.39,West,277,3.0,8.0,53,0.00,,,0.00,596,WeatherTracker,2013-03-01 18:18:00,
2013-03-01 10:23:00,66.3,48.1,30.39,WNW,298,6.0,10.0,52,0.00,,,0.00,608,WeatherTracker,2013-03-01 18:23:00,
2013-03-01 10:28:00,66.6,48.4,30.39,NW,320,4.0,10.0,52,0.00,,,0.00,619,WeatherTracker,2013-03-01 18:28:00,
2013-03-01 10:33:00,66.8,48.6,30.38,WNW,292,6.0,10.0,52,0.00,,,0.00,628,WeatherTracker,2013-03-01 18:33:00,
2013-03-01 10:38:00,67.1,48.4,30.38,North,350,7.0,11.0,51,0.00,,,0.00,638,WeatherTracker,2013-03-01 18:38:00,
2013-03-01 10:43:00,67.5,48.7,30.38,NNW,347,3.0,12.0,51,0.00,,,0.00,652,WeatherTracker,2013-03-01 18:43:00,
2013-03-01 10:48:00,68.0,48.7,30.38,WNW,287,7.0,12.0,50,0.00,,,0.00,656,WeatherTracker,2013-03-01 18:48:00,
2013-03-01 10:53:00,68.0,48.7,30.38,NW,318,2.0,11.0,50,0.00,,,0.00,663,WeatherTracker,2013-03-01 18:53:00,
2013-03-01 10:58:00,68.5,48.6,30.37,NNW,340,6.0,11.0,49,0.00,,,0.00,673,WeatherTracker,2013-03-01 18:58:00,
2013-03-01 11:04:00,68.7,48.8,30.38,North,350,6.0,12.0,49,0.00,,,0.00,682,WeatherTracker,2013-03-01 19:04:00,
2013-03-01 11:09:00,68.7,48.8,30.37,NW,325,7.0,13.0,49,0.00,,,0.00,687,WeatherTracker,2013-03-01 19:09:00,
2013-03-01 11:14:00,68.8,48.9,30.37,NNW,339,4.0,13.0,49,0.00,,,0.00,698,WeatherTracker,2013-03-01 19:14:00,
2013-03-01 11:19:00,68.9,48.9,30.37,NW,320,3.0,13.0,49,0.00,,,0.00,696,WeatherTracker,2013-03-01 19:19:00,
2013-03-01 11:24:00,69.3,49.3,30.37,NW,326,6.0,13.0,49,0.00,,,0.00,705,WeatherTracker,2013-03-01 19:24:00,
2013-03-01 11:29:00,69.6,49.0,30.37,NNW,336,9.0,10.0,48,0.00,,,0.00,714,WeatherTracker,2013-03-01 19:29:00,
2013-03-01 11:34:00,69.9,48.7,30.36,North,355,6.0,12.0,47,0.00,,,0.00,717,WeatherTracker,2013-03-01 19:34:00,
2013-03-01 11:39:00,70.6,48.8,30.36,NW,320,3.0,12.0,46,0.00,,,0.00,722,WeatherTracker,2013-03-01 19:39:00,
2013-03-01 11:44:00,70.7,47.7,30.36,NW,321,8.0,12.0,44,0.00,,,0.00,722,WeatherTracker,2013-03-01 19:44:00,
2013-03-01 11:49:00,70.6,48.2,30.36,NW,314,3.0,13.0,45,0.00,,,0.00,729,WeatherTracker,2013-03-01 19:49:00,
2013-03-01 11:54:00,70.9,49.1,30.36,North,9,2.0,13.0,46,0.00,,,0.00,733,WeatherTracker,2013-03-01 19:54:00,
2013-03-01 11:59:00,71.4,49.5,30.36,NW,312,0.0,12.0,46,0.00,,,0.00,737,WeatherTracker,2013-03-01 19:59:00,
2013-03-01 12:04:00,71.7,49.2,30.35,NNW,339,7.0,10.0,45,0.00,,,0.00,737,WeatherTracker,2013-03-01 20:04:00,
2013-03-01 12:09:00,72.1,49.0,30.35,NW,317,7.0,11.0,44,0.00,,,0.00,742,WeatherTracker,2013-03-01 20:09:00,
2013-03-01 12:14:00,72.2,49.1,30.35,North,350,8.0,14.0,44,0.00,,,0.00,744,WeatherTracker,2013-03-01 20:14:00,
2013-03-01 12:19:00,72.4,49.2,30.34,NNW,331,1.0,14.0,44,0.00,,,0.00,744,WeatherTracker,2013-03-01 20:19:00,
2013-03-01 12:24:00,72.9,49.7,30.34,NW,319,10.0,14.0,44,0.00,,,0.00,744,WeatherTracker,2013-03-01 20:24:00,
2013-03-01 12:29:00,73.2,49.3,30.33,NW,311,9.0,11.0,43,0.00,,,0.00,742,WeatherTracker,2013-03-01 20:29:00,
2013-03-01 12:35:00,73.5,49.0,30.33,NW,306,5.0,12.0,42,0.00,,,0.00,742,WeatherTracker,2013-03-01 20:35:00,
2013-03-01 12:40:00,73.5,49.6,30.33,WNW,291,4.0,12.0,43,0.00,,,0.00,742,WeatherTracker,2013-03-01 20:40:00,
2013-03-01 12:45:00,73.9,49.3,30.33,NW,319,4.0,12.0,42,0.00,,,0.00,742,WeatherTracker,2013-03-01 20:45:00,
2013-03-01 12:50:00,74.3,49.1,30.32,West,271,1.0,11.0,41,0.00,,,0.00,738,WeatherTracker,2013-03-01 20:50:00,
2013-03-01 12:55:00,74.7,48.8,30.32,NNW,348,5.0,11.0,40,0.00,,,0.00,737,WeatherTracker,2013-03-01 20:55:00,
2013-03-01 13:00:00,74.9,48.9,30.32,NNW,336,7.0,11.0,40,0.00,,,0.00,733,WeatherTracker,2013-03-01 21:00:00,
2013-03-01 13:05:00,75.1,49.1,30.31,North,350,3.0,11.0,40,0.00,,,0.00,731,WeatherTracker,2013-03-01 21:05:00,
2013-03-01 13:10:00,75.5,50.1,30.31,North,350,3.0,11.0,41,0.00,,,0.00,728,WeatherTracker,2013-03-01 21:10:00,
2013-03-01 13:15:00,75.6,49.6,30.31,NW,306,8.0,8.0,40,0.00,,,0.00,719,WeatherTracker,2013-03-01 21:15:00,
2013-03-01 13:20:00,75.8,49.7,30.30,West,271,4.0,10.0,40,0.00,,,0.00,719,WeatherTracker,2013-03-01 21:20:00,
2013-03-01 13:25:00,76.3,50.2,30.30,NNW,344,0.0,10.0,40,0.00,,,0.00,714,WeatherTracker,2013-03-01 21:25:00,
2013-03-01 13:30:00,76.3,48.8,30.30,NNW,327,0.0,10.0,38,0.00,,,0.00,710,WeatherTracker,2013-03-01 21:30:00,
2013-03-01 13:35:00,76.5,49.7,30.29,NW,325,0.0,10.0,39,0.00,,,0.00,705,WeatherTracker,2013-03-01 21:35:00,
2013-03-01 13:40:00,76.8,50.6,30.29,NNW,338,6.0,7.0,40,0.00,,,0.00,700,WeatherTracker,2013-03-01 21:40:00,
2013-03-01 13:45:00,76.8,49.2,30.29,NW,313,0.0,8.0,38,0.00,,,0.00,691,WeatherTracker,2013-03-01 21:45:00,
2013-03-01 13:50:00,76.8,49.9,30.29,NNW,333,1.0,8.0,39,0.00,,,0.00,682,WeatherTracker,2013-03-01 21:50:00,
2013-03-01 13:55:00,77.0,50.1,30.28,NNE,12,0.0,9.0,39,0.00,,,0.00,675,WeatherTracker,2013-03-01 21:55:00,
2013-03-01 14:00:00,77.3,49.7,30.28,WNW,298,7.0,9.0,38,0.00,,,0.00,670,WeatherTracker,2013-03-01 22:00:00,
2013-03-01 14:05:00,77.2,48.9,30.28,NW,325,0.0,9.0,37,0.00,,,0.00,661,WeatherTracker,2013-03-01 22:05:00,
2013-03-01 14:10:00,77.5,49.2,30.28,NW,323,0.0,9.0,37,0.00,,,0.00,654,WeatherTracker,2013-03-01 22:10:00,
2013-03-01 14:15:00,77.8,48.7,30.27,WNW,298,2.0,8.0,36,0.00,,,0.00,647,WeatherTracker,2013-03-01 22:15:00,
2013-03-01 14:20:00,77.9,49.5,30.27,North,355,0.0,8.0,37,0.00,,,0.00,633,WeatherTracker,2013-03-01 22:20:00,
2013-03-01 14:26:00,78.4,49.2,30.27,NW,325,0.0,8.0,36,0.00,,,0.00,613,WeatherTracker,2013-03-01 22:26:00,
2013-03-01 14:31:00,78.8,49.6,30.27,WNW,298,6.0,6.0,36,0.00,,,0.00,587,WeatherTracker,2013-03-01 22:31:00,
2013-03-01 14:36:00,78.2,49.0,30.27,NNE,15,3.0,10.0,36,0.00,,,0.00,610,WeatherTracker,2013-03-01 22:36:00,
2013-03-01 14:41:00,77.5,48.4,30.26,NNE,26,0.0,10.0,36,0.00,,,0.00,559,WeatherTracker,2013-03-01 22:41:00,
2013-03-01 14:46:00,77.4,48.3,30.26,NNE,23,0.0,5.0,36,0.00,,,0.00,543,WeatherTracker,2013-03-01 22:46:00,
2013-03-01 14:51:00,78.1,48.9,30.26,NW,321,0.0,6.0,36,0.00,,,0.00,589,WeatherTracker,2013-03-01 22:51:00,
2013-03-01 14:56:00,78.8,48.8,30.26,NNW,348,0.0,7.0,35,0.00,,,0.00,570,WeatherTracker,2013-03-01 22:56:00,
2013-03-01 15:01:00,78.8,48.0,30.26,NNW,343,3.0,7.0,34,0.00,,,0.00,559,WeatherTracker,2013-03-01 23:01:00,
2013-03-01 15:06:00,78.8,47.2,30.26,NNW,332,0.0,9.0,33,0.00,,,0.00,545,WeatherTracker,2013-03-01 23:06:00,
2013-03-01 15:11:00,78.7,47.2,30.26,NNW,342,0.0,9.0,33,0.00,,,0.00,520,WeatherTracker,2013-03-01 23:11:00,
2013-03-01 15:16:00,78.8,48.8,30.26,NW,325,0.0,6.0,35,0.00,,,0.00,503,WeatherTracker,2013-03-01 23:16:00,
2013-03-01 15:21:00,78.4,48.5,30.26,NW,320,0.0,6.0,35,0.00,,,0.00,496,WeatherTracker,2013-03-01 23:21:00,
2013-03-01 15:26:00,78.8,48.8,30.26,NW,320,0.0,1.0,35,0.00,,,0.00,480,WeatherTracker,2013-03-01 23:26:00,
2013-03-01 15:31:00,78.9,48.1,30.26,NNW,340,0.0,1.0,34,0.00,,,0.00,469,WeatherTracker,2013-03-01 23:31:00,
2013-03-01 15:36:00,79.4,48.6,30.25,NNW,340,0.0,1.0,34,0.00,,,0.00,427,WeatherTracker,2013-03-01 23:36:00,
2013-03-01 15:41:00,79.4,47.8,30.25,NW,323,0.0,5.0,33,0.00,,,0.00,406,WeatherTracker,2013-03-01 23:41:00,
2013-03-01 15:46:00,78.8,47.2,30.25,NW,323,0.0,5.0,33,0.00,,,0.00,429,WeatherTracker,2013-03-01 23:46:00,
2013-03-01 15:51:00,78.8,47.2,30.25,NNW,333,0.0,0.0,33,0.00,,,0.00,392,WeatherTracker,2013-03-01 23:51:00,
2013-03-01 15:56:00,78.8,47.2,30.25,NNW,341,0.0,1.0,33,0.00,,,0.00,376,WeatherTracker,2013-03-01 23:56:00,
2013-03-01 16:01:00,78.8,47.2,30.25,North,351,0.0,3.0,33,0.00,,,0.00,315,WeatherTracker,2013-03-02 00:01:00,
2013-03-01 16:06:00,78.7,47.2,30.25,NNW,331,0.0,5.0,33,0.00,,,0.00,306,WeatherTracker,2013-03-02 00:06:00,
2013-03-01 16:11:00,78.2,46.7,30.25,NNW,331,0.0,5.0,33,0.00,,,0.00,302,WeatherTracker,2013-03-02 00:11:00,
2013-03-01 16:16:00,78.0,46.5,30.25,NNW,331,0.0,2.0,33,0.00,,,0.00,330,WeatherTracker,2013-03-02 00:16:00,
2013-03-01 16:22:00,77.8,45.6,30.25,NNW,331,0.0,4.0,32,0.00,,,0.00,320,WeatherTracker,2013-03-02 00:22:00,
2013-03-01 16:27:00,77.4,45.2,30.24,NNW,331,0.0,4.0,32,0.00,,,0.00,299,WeatherTracker,2013-03-02 00:27:00,
2013-03-01 16:32:00,76.8,45.5,30.25,NNW,331,0.0,0.0,33,0.00,,,0.00,246,WeatherTracker,2013-03-02 00:32:00,
2013-03-01 16:37:00,76.6,46.1,30.24,NNW,331,0.0,0.0,34,0.00,,,0.00,172,WeatherTracker,2013-03-02 00:37:00,
2013-03-01 16:42:00,76.5,45.2,30.24,NNW,331,0.0,0.0,33,0.00,,,0.00,149,WeatherTracker,2013-03-02 00:42:00,
2013-03-01 16:47:00,76.3,47.4,30.24,NNW,331,0.0,0.0,36,0.00,,,0.00,97,WeatherTracker,2013-03-02 00:47:00,
2013-03-01 16:52:00,75.7,48.3,30.24,NNW,337,0.0,0.0,38,0.00,,,0.00,72,WeatherTracker,2013-03-02 00:52:00,
2013-03-01 16:57:00,75.0,47.7,30.24,NNW,338,0.0,1.0,38,0.00,,,0.00,53,WeatherTracker,2013-03-02 00:57:00,
2013-03-01 17:02:00,74.5,46.5,30.24,NNW,338,0.0,1.0,37,0.00,,,0.00,42,WeatherTracker,2013-03-02 01:02:00,
2013-03-01 17:07:00,74.2,46.2,30.23,NNW,340,0.0,0.0,37,0.00,,,0.00,40,WeatherTracker,2013-03-02 01:07:00,
2013-03-01 17:12:00,74.0,47.5,30.23,NNW,346,0.0,1.0,39,0.00,,,0.00,40,WeatherTracker,2013-03-02 01:12:00,
2013-03-01 17:17:00,73.7,47.9,30.23,North,9,0.0,1.0,40,0.00,,,0.00,39,WeatherTracker,2013-03-02 01:17:00,
2013-03-01 17:22:00,73.4,46.9,30.23,North,11,0.0,1.0,39,0.00,,,0.00,37,WeatherTracker,2013-03-02 01:22:00,
2013-03-01 17:27:00,73.0,46.6,30.24,North,11,0.0,1.0,39,0.00,,,0.00,39,WeatherTracker,2013-03-02 01:27:00,
2013-03-01 17:32:00,72.7,47.6,30.24,North,11,0.0,0.0,41,0.00,,,0.00,33,WeatherTracker,2013-03-02 01:32:00,
2013-03-01 17:37:00,72.3,47.3,30.24,North,11,0.0,0.0,41,0.00,,,0.00,26,WeatherTracker,2013-03-02 01:37:00,
2013-03-01 17:42:00,71.8,47.5,30.24,North,11,0.0,0.0,42,0.00,,,0.00,21,WeatherTracker,2013-03-02 01:42:00,
2013-03-01 17:48:00,71.4,47.7,30.24,North,11,0.0,0.0,43,0.00,,,0.00,16,WeatherTracker,2013-03-02 01:48:00,
2013-03-01 17:53:00,70.9,47.3,30.24,North,11,0.0,0.0,43,0.00,,,0.00,11,WeatherTracker,2013-03-02 01:53:00,
2013-03-01 17:58:00,70.4,46.8,30.24,North,11,0.0,0.0,43,0.00,,,0.00,5,WeatherTracker,2013-03-02 01:58:00,
2013-03-01 18:03:00,69.8,46.9,30.24,North,11,0.0,0.0,44,0.00,,,0.00,0,WeatherTracker,2013-03-02 02:03:00,
2013-03-01 18:08:00,69.3,47.6,30.24,North,11,0.0,0.0,46,0.00,,,0.00,0,WeatherTracker,2013-03-02 02:08:00,
2013-03-01 18:13:00,68.6,47.6,30.24,North,11,0.0,0.0,47,0.00,,,0.00,0,WeatherTracker,2013-03-02 02:13:00,
2013-03-01 18:18:00,68.0,47.0,30.24,North,11,0.0,0.0,47,0.00,,,0.00,0,WeatherTracker,2013-03-02 02:18:00,
2013-03-01 18:23:00,67.3,47.5,30.24,North,11,0.0,0.0,49,0.00,,,0.00,0,WeatherTracker,2013-03-02 02:23:00,
2013-03-01 18:28:00,66.7,47.5,30.24,North,11,0.0,0.0,50,0.00,,,0.00,0,WeatherTracker,2013-03-02 02:28:00,
2013-03-01 18:33:00,66.2,47.5,30.24,North,11,0.0,0.0,51,0.00,,,0.00,0,WeatherTracker,2013-03-02 02:33:00,
2013-03-01 18:38:00,65.9,47.3,30.24,North,11,0.0,0.0,51,0.00,,,0.00,0,WeatherTracker,2013-03-02 02:38:00,
2013-03-01 18:43:00,65.5,47.4,30.24,North,11,0.0,0.0,52,0.00,,,0.00,0,WeatherTracker,2013-03-02 02:43:00,
2013-03-01 18:48:00,65.0,48.4,30.24,North,11,0.0,0.0,55,0.00,,,0.00,0,WeatherTracker,2013-03-02 02:48:00,
2013-03-01 18:53:00,64.5,47.5,30.24,North,11,0.0,0.0,54,0.00,,,0.00,0,WeatherTracker,2013-03-02 02:53:00,
2013-03-01 18:58:00,64.1,47.6,30.24,North,11,0.0,0.0,55,0.00,,,0.00,0,WeatherTracker,2013-03-02 02:58:00,
2013-03-01 19:03:00,63.6,47.6,30.24,North,11,0.0,0.0,56,0.00,,,0.00,0,WeatherTracker,2013-03-02 03:03:00,
2013-03-01 19:08:00,63.0,47.5,30.24,North,11,0.0,0.0,57,0.00,,,0.00,0,WeatherTracker,2013-03-02 03:08:00,
2013-03-01 19:13:00,62.4,47.4,30.24,North,11,0.0,0.0,58,0.00,,,0.00,0,WeatherTracker,2013-03-02 03:13:00,
2013-03-01 19:18:00,62.1,47.1,30.24,North,11,0.0,0.0,58,0.00,,,0.00,0,WeatherTracker,2013-03-02 03:18:00,
2013-03-01 19:23:00,62.0,47.5,30.24,North,11,0.0,0.0,59,0.00,,,0.00,0,WeatherTracker,2013-03-02 03:23:00,
2013-03-01 19:28:00,62.0,47.5,30.24,North,11,0.0,0.0,59,0.00,,,0.00,0,WeatherTracker,2013-03-02 03:28:00,
2013-03-01 19:33:00,61.9,47.4,30.24,North,11,0.0,0.0,59,0.00,,,0.00,0,WeatherTracker,2013-03-02 03:33:00,
2013-03-01 19:38:00,61.6,47.1,30.24,North,11,0.0,0.0,59,0.00,,,0.00,0,WeatherTracker,2013-03-02 03:38:00,
2013-03-01 19:43:00,61.4,47.4,30.25,North,11,0.0,0.0,60,0.00,,,0.00,0,WeatherTracker,2013-03-02 03:43:00,
2013-03-01 19:48:00,61.3,47.3,30.25,North,11,0.0,0.0,60,0.00,,,0.00,0,WeatherTracker,2013-03-02 03:48:00,
2013-03-01 19:53:00,61.1,47.1,30.25,North,11,0.0,0.0,60,0.00,,,0.00,0,WeatherTracker,2013-03-02 03:53:00,
2013-03-01 19:58:00,60.8,46.8,30.25,North,11,0.0,0.0,60,0.00,,,0.00,0,WeatherTracker,2013-03-02 03:58:00,
2013-03-01 20:04:00,60.5,47.0,30.25,North,11,0.0,0.0,61,0.00,,,0.00,0,WeatherTracker,2013-03-02 04:04:00,
2013-03-01 20:09:00,60.2,47.1,30.25,North,11,0.0,0.0,62,0.00,,,0.00,0,WeatherTracker,2013-03-02 04:09:00,
2013-03-01 20:14:00,59.9,46.8,30.26,North,11,0.0,0.0,62,0.00,,,0.00,0,WeatherTracker,2013-03-02 04:14:00,
2013-03-01 20:19:00,59.6,46.6,30.26,North,11,0.0,0.0,62,0.00,,,0.00,0,WeatherTracker,2013-03-02 04:19:00,
2013-03-01 20:24:00,59.3,46.7,30.26,North,11,0.0,0.0,63,0.00,,,0.00,0,WeatherTracker,2013-03-02 04:24:00,
2013-03-01 20:29:00,59.1,46.9,30.25,North,11,0.0,0.0,64,0.00,,,0.00,0,WeatherTracker,2013-03-02 04:29:00,
2013-03-01 20:34:00,59.1,46.9,30.25,North,11,0.0,0.0,64,0.00,,,0.00,0,WeatherTracker,2013-03-02 04:34:00,
2013-03-01 20:39:00,58.6,46.9,30.26,North,11,0.0,0.0,65,0.00,,,0.00,0,WeatherTracker,2013-03-02 04:39:00,
2013-03-01 20:44:00,58.2,46.5,30.26,North,11,0.0,0.0,65,0.00,,,0.00,0,WeatherTracker,2013-03-02 04:44:00,
2013-03-01 20:49:00,57.9,46.2,30.26,North,11,0.0,0.0,65,0.00,,,0.00,0,WeatherTracker,2013-03-02 04:49:00,
2013-03-01 20:54:00,57.6,46.3,30.26,North,11,0.0,0.0,66,0.00,,,0.00,0,WeatherTracker,2013-03-02 04:54:00,
2013-03-01 20:59:00,57.3,46.4,30.26,North,11,0.0,0.0,67,0.00,,,0.00,0,WeatherTracker,2013-03-02 04:59:00,
2013-03-01 21:00:00,57.3,46.4,30.26,North,11,0.0,0.0,67,0.00,,,0.00,0,WeatherTracker,2013-03-02 05:00:00,
2013-03-01 21:01:00,57.2,46.3,30.26,North,11,0.0,0.0,67,0.00,,,0.00,0,WeatherTracker,2013-03-02 05:01:00,
2013-03-01 21:06:00,57.0,46.2,30.26,North,11,0.0,0.0,67,0.00,,,0.00,0,WeatherTracker,2013-03-02 05:06:00,
2013-03-01 21:11:00,56.8,46.0,30.26,North,11,0.0,0.0,67,0.00,,,0.00,0,WeatherTracker,2013-03-02 05:11:00,
2013-03-01 21:16:00,56.6,46.2,30.26,North,11,0.0,0.0,68,0.00,,,0.00,0,WeatherTracker,2013-03-02 05:16:00,
2013-03-01 21:21:00,56.4,46.0,30.26,North,11,0.0,0.0,68,0.00,,,0.00,0,WeatherTracker,2013-03-02 05:21:00,
2013-03-01 21:26:00,56.2,45.8,30.26,North,11,0.0,0.0,68,0.00,,,0.00,0,WeatherTracker,2013-03-02 05:26:00,
2013-03-01 21:31:00,56.0,46.0,30.25,North,11,0.0,0.0,69,0.00,,,0.00,0,WeatherTracker,2013-03-02 05:31:00,
2013-03-01 21:36:00,55.8,45.8,30.25,North,11,0.0,0.0,69,0.00,,,0.00,0,WeatherTracker,2013-03-02 05:36:00,
2013-03-01 21:41:00,55.6,46.0,30.25,North,11,0.0,0.0,70,0.00,,,0.00,0,WeatherTracker,2013-03-02 05:41:00,
2013-03-01 21:46:00,55.4,45.8,30.25,North,11,0.0,0.0,70,0.00,,,0.00,0,WeatherTracker,2013-03-02 05:46:00,
2013-03-01 21:52:00,55.3,45.7,30.25,North,11,0.0,0.0,70,0.00,,,0.00,0,WeatherTracker,2013-03-02 05:52:00,
2013-03-01 21:57:00,55.2,46.0,30.25,North,11,0.0,0.0,71,0.00,,,0.00,0,WeatherTracker,2013-03-02 05:57:00,
2013-03-01 22:02:00,55.1,45.5,30.25,North,11,0.0,0.0,70,0.00,,,0.00,0,WeatherTracker,2013-03-02 06:02:00,
2013-03-01 22:07:00,55.0,45.4,30.25,North,11,0.0,0.0,70,0.00,,,0.00,0,WeatherTracker,2013-03-02 06:07:00,
2013-03-01 22:12:00,54.9,45.3,30.25,North,11,0.0,0.0,70,0.00,,,0.00,0,WeatherTracker,2013-03-02 06:12:00,
2013-03-01 22:17:00,54.7,45.5,30.25,North,11,0.0,0.0,71,0.00,,,0.00,0,WeatherTracker,2013-03-02 06:17:00,
2013-03-01 22:22:00,54.5,45.3,30.25,North,11,0.0,0.0,71,0.00,,,0.00,0,WeatherTracker,2013-03-02 06:22:00,
2013-03-01 22:27:00,54.2,45.0,30.25,North,11,0.0,0.0,71,0.00,,,0.00,0,WeatherTracker,2013-03-02 06:27:00,
2013-03-01 22:32:00,54.0,45.2,30.25,North,11,0.0,0.0,72,0.00,,,0.00,0,WeatherTracker,2013-03-02 06:32:00,
2013-03-01 22:37:00,53.8,45.0,30.25,North,11,0.0,0.0,72,0.00,,,0.00,0,WeatherTracker,2013-03-02 06:37:00,
2013-03-01 22:42:00,53.6,44.8,30.25,North,11,0.0,0.0,72,0.00,,,0.00,0,WeatherTracker,2013-03-02 06:42:00,
2013-03-01 22:47:00,53.4,44.6,30.25,North,11,0.0,0.0,72,0.00,,,0.00,0,WeatherTracker,2013-03-02 06:47:00,
2013-03-01 22:52:00,53.2,44.8,30.25,North,11,0.0,0.0,73,0.00,,,0.00,0,WeatherTracker,2013-03-02 06:52:00,
2013-03-01 22:57:00,53.0,44.6,30.25,North,11,0.0,0.0,73,0.00,,,0.00,0,WeatherTracker,2013-03-02 06:57:00,
2013-03-01 23:02:00,52.9,44.5,30.25,North,11,0.0,0.0,73,0.00,,,0.00,0,WeatherTracker,2013-03-02 07:02:00,
2013-03-01 23:07:00,52.7,44.6,30.25,North,11,0.0,0.0,74,0.00,,,0.00,0,WeatherTracker,2013-03-02 07:07:00,
2013-03-01 23:12:00,52.4,44.4,30.25,North,11,0.0,0.0,74,0.00,,,0.00,0,WeatherTracker,2013-03-02 07:12:00,
2013-03-01 23:17:00,52.3,44.3,30.25,North,11,0.0,0.0,74,0.00,,,0.00,0,WeatherTracker,2013-03-02 07:17:00,
2013-03-01 23:22:00,52.2,44.2,30.25,North,11,0.0,0.0,74,0.00,,,0.00,0,WeatherTracker,2013-03-02 07:22:00,
2013-03-01 23:28:00,52.2,44.2,30.24,North,11,0.0,0.0,74,0.00,,,0.00,0,WeatherTracker,2013-03-02 07:28:00,
2013-03-01 23:33:00,52.1,44.4,30.25,North,11,0.0,0.0,75,0.00,,,0.00,0,WeatherTracker,2013-03-02 07:33:00,
2013-03-01 23:38:00,52.0,44.0,30.25,North,11,0.0,0.0,74,0.00,,,0.00,0,WeatherTracker,2013-03-02 07:38:00,
2013-03-01 23:43:00,51.8,43.8,30.25,North,11,0.0,0.0,74,0.00,,,0.00,0,WeatherTracker,2013-03-02 07:43:00,
2013-03-01 23:48:00,51.6,43.9,30.25,North,11,0.0,0.0,75,0.00,,,0.00,0,WeatherTracker,2013-03-02 07:48:00,
2013-03-01 23:53:00,51.5,44.2,30.24,North,11,0.0,0.0,76,0.00,,,0.00,0,WeatherTracker,2013-03-02 07:53:00,
2013-03-01 23:58:00,51.4,44.1,30.24,North,11,0.0,0.0,76,0.00,,,0.00,0,WeatherTracker,2013-03-02 07:58:00,